Regional Weather Roundup
Issued by NWS

Home | Current Version | Previous Version | Text Only | Print | Product List | Glossary Off
Versions: 1 2 3 4 5 6 7 8 9 10 11 12 13 14 15 16 17 18 19 20 21 22 23 24 25 26 27 28 29 30 31 32 33 34 35 36 37 38 39 40 41 42 43 44 45 46 47 48 49 50

000
ASUS43 KOAX 200610
RWRNE

WEATHER ROUNDUP FOR NEBRASKA
NATIONAL WEATHER SERVICE OMAHA NE
100 AM CDT SUN MAY 20 2018

NOTES: SATELLITE DATA IS BEING USED TO AUGMENT CLOUD COVER ABOVE
       12000 FEET.
       "FAIR" INDICATES FEW OR NO CLOUDS BELOW 12,000 FEET WITH NO
       SIGNIFICANT WEATHER AND/OR OBSTRUCTIONS TO VISIBILITY.


NEZ001>004-019>022-054>056-200700-
NEBRASKA PANHANDLE

CITY           SKY/WX    TMP DP  RH WIND       PRES   REMARKS
SCOTTSBLUFF    CLOUDY    44  42  93 W5        30.28S
6HR MIN TEMP:  44; 6HR MAX TEMP:  45; 6HR PCP:  0.02;

ALLIANCE       CLOUDY    43  42  97 NW6       30.24S
6HR MIN TEMP:  43; 6HR MAX TEMP:  43; 6HR PCP:  0.01;

CHADRON        MOCLDY    43  42  97 SW6       30.26S
6HR MIN TEMP:  43; 6HR MAX TEMP:  47; 6HR PCP: TRACE;

GORDON         FAIR      44  40  86 N7        30.24R
6HR MIN TEMP:  44; 6HR MAX TEMP:  49;

KIMBALL        CLOUDY    40  39  95 CALM      30.29R
SIDNEY         CLOUDY    42  40  92 N7        30.27S
6HR MIN TEMP:  42; 6HR MAX TEMP:  43; 6HR PCP: TRACE;

$$

NEZ057>060-069>072-079>082-200700-
SOUTHWEST NEBRASKA

CITY           SKY/WX    TMP DP  RH WIND       PRES   REMARKS
NORTH PLATTE   CLOUDY    49  44  83 NW9       30.18S
6HR MIN TEMP:  48; 6HR MAX TEMP:  50; 6HR PCP:  0.13;

IMPERIAL       CLOUDY    47  45  93 NW14      30.22F
6HR MIN TEMP:  45; 6HR MAX TEMP:  47; 6HR PCP:  0.03;

LEXINGTON      DRIZZLE   51  50  96 NW7       30.13S
MCCOOK         CLOUDY    49  46  90 N17       30.16R
6HR MIN TEMP:  48; 6HR MAX TEMP:  50; 6HR PCP:  0.04;

OGALLALA       CLOUDY    48  45  87 NW5       30.24R
$$

NEZ005>010-023>029-035>040-094-200700-
NORTH CENTRAL NEBRASKA

CITY           SKY/WX    TMP DP  RH WIND       PRES   REMARKS
VALENTINE      CLOUDY    52  37  56 N12       30.19S
6HR MIN TEMP:  52; 6HR MAX TEMP:  56; 6HR PCP: TRACE;

AINSWORTH      CLOUDY    50  43  79 N9        30.17R
BROKEN BOW     CLOUDY    52  50  93 N12       30.13R
6HR MIN TEMP:  51; 6HR MAX TEMP:  52; 6HR PCP:  0.04;

O`NEILL        CLOUDY    55  52  92 NW5       30.13R
ORD            CLOUDY    51  51 100 N7        30.10S
6HR MIN TEMP:  50; 6HR MAX TEMP:  51;

THEDFORD       CLOUDY    49  45  85 NW9       30.20R
$$

NEZ041-046>049-061>064-073>077-083>087-200700-
SOUTH CENTRAL NEBRASKA

CITY           SKY/WX    TMP DP  RH WIND       PRES   REMARKS
GRAND ISLAND   LGT RAIN  52  51  97 W7        30.12R FOG
6HR MIN TEMP:  51; 6HR MAX TEMP:  52; 6HR PCP:  0.16;

AURORA         RAIN      52  52 100 N12       30.07F
HASTINGS       RAIN      51  51 100 NW7       30.11R FOG
6HR MIN TEMP:  51; 6HR MAX TEMP:  53; 6HR PCP:  0.61;

HEBRON         MOCLDY    55  53  91 NW5       30.07R
HOLDREGE       DRIZZLE   49  49 100 N5        30.12S
KEARNEY        LGT RAIN  50  49  96 N9        30.12S
YORK           CLOUDY    54  54 100 N9        30.07S
$$

NEZ011>018-030>034-042>045-200700-
NORTHEAST NEBRASKA

CITY           SKY/WX    TMP DP  RH WIND       PRES   REMARKS
NORFOLK        CLOUDY    53  53 100 N9        30.08S
6HR MIN TEMP:  52; 6HR MAX TEMP:  53; 6HR PCP:  0.03;

ALBION         CLOUDY    53  52  97 N9        30.09F FOG
BLAIR          CLOUDY    56  55  96 N8        30.05R FOG
COLUMBUS       CLOUDY    55  52  89 N9        30.07S
FREMONT        CLOUDY    57  55  93 N6        30.05S
TEKAMAH        CLOUDY    57  55  93 N12       30.06R
6HR MIN TEMP:  57; 6HR MAX TEMP:  59; 6HR PCP:  0.06;

WAYNE          CLOUDY    55  54  96 N7        30.09S
$$

NEZ050>053-065>068-078-088>093-200700-
SOUTHEAST NEBRASKA

CITY           SKY/WX    TMP DP  RH WIND       PRES   REMARKS
LINCOLN        CLEAR     53  51  93 N8        30.03F FOG
6HR MIN TEMP:  52; 6HR MAX TEMP:  61; 6HR PCP: TRACE;

OMAHA EPPLEY   PTCLDY    58  56  93 N8        30.03S
6HR MIN TEMP:  58; 6HR MAX TEMP:  63; 6HR PCP: TRACE;

BEATRICE       MOCLDY    56  55  94 N8        30.03S
FALLS CITY     CLEAR     60  58  92 N5        29.99S
6HR MIN TEMP:  60; 6HR MAX TEMP:  73;

NEBRASKA CITY  CLEAR     57  57 100 N8        30.01F
PLATTSMOUTH    CLEAR     56  55  94 NW6       30.03S
$$

NEZ044-045-051>053-067-200700-
OMAHA AREA

CITY           SKY/WX    TMP DP  RH WIND       PRES   REMARKS
OMAHA EPPLEY   PTCLDY    58  56  93 N8        30.03S
6HR MIN TEMP:  58; 6HR MAX TEMP:  63; 6HR PCP: TRACE;

BLAIR          CLOUDY    56  55  96 N8        30.05R FOG
FREMONT        CLOUDY    57  55  93 N6        30.05S
MILLARD        MOCLDY    59  57  92 NW6       30.04S
OFFUTT AFB     CLEAR     58  57  97 N8        30.02S
PLATTSMOUTH    CLEAR     56  55  94 NW6       30.03S
WAHOO          CLOUDY    57  54  88 N13       30.04F
$$



USA.gov is the U.S. government's official web portal to all federal, state and local government web resources and services.